Happy Valentine's Day! 

Flight Track Log - Related Links

Times and Time Zones

All times are in EDT time to prevent confusion due to time zone crossing. See the DAL3970 flight status page for this flight to view local times or setup timezone preferences in your user account.


Time Position Orientation Groundspeed Altitude Reporting Facility
EDT Latitude Longitude Course Direction KTS MPH feet Rate Location/Type
Fri 03:52:50 PM 45.5597 -84.9286 196° South 285 328 5,700  Level Minneapolis Center
Fri 03:53:52 PM 45.4842 -84.9194 175° South 278 320 8,200 2,352 Climbing Minneapolis Center
Fri 03:54:55 PM 45.4069 -84.9097 175° South 277 319 10,600 1,680 Climbing Minneapolis Center
Fri 03:55:57 PM 45.3058 -84.8975 175° South 287 330 11,700 1,452 Climbing Minneapolis Center
Fri 03:56:59 PM 45.2083 -84.8856 175° South 314 361 13,600 1,790 Climbing Minneapolis Center
Fri 03:57:00 PM 45.0781 -84.5739 155° Southeast  Level Estimated
Fri 03:58:01 PM 45.1106 -84.8731 175° South 336 387 15,400  Level Minneapolis Center
Fri 03:59:03 PM 45.0047 -84.8592 175° South 347 399 17,300 1,606 Climbing Minneapolis Center
Fri 04:00:08 PM 44.9050 -84.8450 174° South 339 390 18,800 1,087 Climbing Minneapolis Center
Fri 04:01:10 PM 44.8053 -84.8311 174° South 342 394 19,600 774 Climbing Minneapolis Center
Fri 04:02:12 PM 44.7136 -84.7731 156° South 357 411 20,400 677 Climbing Minneapolis Center
Fri 04:03:14 PM 44.6161 -84.7156 157° South 374 430 21,000 290 Climbing Minneapolis Center
Fri 04:04:16 PM 44.5167 -84.6572 157° South 383 441 21,000  Level Minneapolis Center
Fri 04:05:18 PM 44.4158 -84.5967 157° South 392 451 21,000  Level Minneapolis Center
Fri 04:06:20 PM 44.3031 -84.5308 157° South 394 453 21,000  Level Minneapolis Center
Fri 04:07:22 PM 44.1964 -84.4672 157° South 391 450 21,000  Level Minneapolis Center
Fri 04:08:24 PM 44.0981 -84.4094 157° South 389 448 21,000  Level Minneapolis Center
Fri 04:09:26 PM 43.9922 -84.3486 158° South 388 447 21,000  Level Minneapolis Center
Fri 04:10:29 PM 43.8983 -84.2922 157° South 386 444 21,000  Level Minneapolis Center
Fri 04:11:31 PM 43.7986 -84.2336 157° South 385 443 21,000  Level Minneapolis Center
Fri 04:12:33 PM 43.7006 -84.1769 157° South 386 444 21,000  Level Minneapolis Center
Fri 04:13:35 PM 43.6033 -84.1206 157° South 384 442 21,000  Level Minneapolis Center
Fri 04:14:37 PM 43.4992 -84.0619 158° South 366 421 21,000  Level Minneapolis Center
Fri 04:15:39 PM 43.4214 -84.0258 161° South 334 384 21,000  Level Minneapolis Center
Fri 04:16:46 PM 43.3281 -83.9817 161° South 316 364 21,000 -140 Level Cleveland Center
Fri 04:17:48 PM 43.2450 -83.9431 161° South 318 366 20,700 -1,016 Descending Cleveland Center
Fri 04:18:50 PM 43.1625 -83.9036 161° South 316 364 18,900 -1,839 Descending Cleveland Center
Fri 04:19:52 PM 43.0817 -83.8678 162° South 309 356 16,900 -2,118 Descending Cleveland Center
Fri 04:19:58 PM 43.0639 -83.8614 165° South 303 349 16,500 -1,742 Descending Cleveland Center
Fri 04:20:54 PM 43.0019 -83.8300 160° South 306 352 15,100 -1,552 Descending Cleveland Center
Fri 04:21:54 PM 42.9131 -83.7817 158° South 300 345 13,500 -1,619 Descending Cleveland Center
Fri 04:21:57 PM 42.9111 -83.7783 129° Southeast 298 343 13,400 -1,355 Descending Cleveland Center
Fri 04:22:56 PM 42.8392 -83.7364 157° South 295 339 12,100 -1,258 Descending Cleveland Center
Fri 04:22:59 PM 42.8347 -83.7333 153° Southeast 300 345 12,100 -109 Level Cleveland Center
Fri 04:23:51 PM 42.7731 -83.6983 157° South 256 295 12,000 -194 Descending Cleveland Center
Fri 04:24:01 PM 42.7644 -83.6922 152° Southeast 281 323 11,900 -1,343 Descending Cleveland Center
Fri 04:24:58 PM 42.7008 -83.6564 158° South 248 285 10,500 -1,355 Descending Cleveland Center
Fri 04:25:03 PM 42.7042 -83.6553 14° North 246 283 10,500 -985 Level Cleveland Center
Fri 04:26:05 PM 42.6439 -83.6197 157° South 239 275 9,400 -1,436 Descending Cleveland Center
Fri 04:27:00 PM 42.5858 -83.5742 150° Southeast 253 291 7,700 -1,645 Descending Cleveland Center
Fri 04:27:07 PM 42.5861 -83.5783 275° West 237 273 7,700 -1,082 Level Cleveland Center
Fri 04:28:01 PM 42.5700 -83.4839 103° East 226 260 6,600 -1,355 Descending Cleveland Center
Fri 04:28:09 PM 42.5672 -83.4694 105° East 240 276 6,300 -492 Descending Cleveland Center
Fri 04:29:02 PM 42.5558 -83.3969 102° East 228 262 6,100 -290 Descending Cleveland Center
Fri 04:29:11 PM 42.5533 -83.3872 109° East 226 260 6,000  Descending Cleveland Center
Fri 04:30:13 PM 42.5642 -83.3058 80° East 238 274 6,100 -478 Climbing Cleveland Center
Fri 04:31:04 PM 42.6011 -83.2444 51° Northeast 222 255 5,100 -1,161 Descending Cleveland Center
Fri 04:31:15 PM 42.6006 -83.2367 96° East 233 268 4,900 -1,082 Descending Cleveland Center
Fri 04:32:05 PM 42.5836 -83.1711 109° East 187 215 4,000 -857 Descending Cleveland Center
Fri 04:32:18 PM 42.5778 -83.1686 162° South 213 245 4,000 98 Level Cleveland Center
Fri 04:33:06 PM 42.5336 -83.1672 179° South 176 203 4,100  Climbing Cleveland Center
Fri 04:33:20 PM 42.5300 -83.1653 158° South 176 203 4,000  Descending Cleveland Center
Fri 04:34:07 PM 42.4850 -83.1717 186° South 168 193 4,100 97 Climbing Cleveland Center
Fri 04:34:22 PM 42.4839 -83.1714 170° South 175 201 4,100  Level Cleveland Center
Fri 04:35:02 PM 42.4494 -83.2008 212° Southwest 164 189 4,100  Level Cleveland Center
Fri 04:35:24 PM 42.4350 -83.2103 206° Southwest 170 196 4,100  Level Cleveland Center
Fri 04:36:03 PM 42.4072 -83.2317 210° Southwest 167 192 4,100  Level Cleveland Center
Fri 04:36:26 PM 42.3942 -83.2397 204° Southwest 168 193 4,100 -218 Level Cleveland Center
Fri 04:36:58 PM 42.3714 -83.2606 214° Southwest 167 192 3,900 -581 Descending Cleveland Center
Fri 04:37:28 PM 42.3533 -83.2700 201° Southwest 167 192 3,500 -885 Descending Cleveland Center
Fri 04:37:59 PM 42.3292 -83.2914 213° Southwest 171 197 3,000 -871 Descending Cleveland Center
Fri 04:38:30 PM 42.3117 -83.3011 202° Southwest 169 194 2,600 -909 Descending Cleveland Center
Fri 04:39:05 PM 42.2828 -83.3244 211° Southwest 142 163 2,000 -774 Descending Cleveland Center
Fri 04:39:32 PM 42.2728 -83.3306 204° Southwest 164 189 1,800 -677 Descending Cleveland Center
Fri 04:40:07 PM 42.2492 -83.3506 212° Southwest 139 160 1,300 -677 Descending Cleveland Center
Fri 04:40:34 PM 42.2386 -83.3553 198° South 149 171 1,100 -337 Descending Cleveland Center
Fri 04:41:36 PM 42.1978 -83.3869 210° Southwest 146 168 800 -290 Descending Cleveland Center

Login

Don't have an account? Register now (free) for customized features, flight alerts, and more!